Temperature
31 33 33 33 33 33 33 33 33 32 32 32 32 32 32 31 29 28 27 26 25 24 24 23 23 22 22 22 21 21 20 20 19 19 18 18 18 17 17 17 16 16 16 16
30 32 33 33 33 33 33 33 33 33 32 32 32 31 31 30 29 28 26 25 25 24 23 23 22 22 22 21 21 20 20 19 19 18 18 18 17 17 17 17 16 16 16 16
29 31 31 31 32 33 33 34 33 32 32 31 31 30 29 28 28 27 26 25 24 23 22 22 22 22 21 21 20 20 19 19 19 18 18 17 17 17 17 16 16 16 16 16
29 29 28 31 34 34 33 33 33 33 32 32 30 29 28 28 27 26 25 25 24 23 22 22 21 21 21 20 20 19 19 19 18 18 17 17 17 17 16 16 16 15 15 15
28 28 29 31 33 33 32 31 33 32 32 31 30 29 28 27 26 25 25 24 23 23 22 21 21 20 20 20 19 19 19 18 18 18 17 17 17 16 16 15 15 15 15 15
27 27 28 30 32 33 32 30 32 32 31 30 30 29 27 25 25 24 24 23 23 22 22 21 20 20 20 19 19 19 18 18 18 17 17 17 17 16 16 15 15 15 14 14
27 27 29 30 31 32 29 29 30 30 29 28 28 27 25 24 24 23 23 22 22 21 21 20 20 20 19 19 18 18 18 18 17 17 17 16 16 16 15 15 14 14 14 14
27 27 27 30 30 29 27 28 28 28 27 26 25 24 24 23 23 22 22 21 21 21 20 20 19 19 19 18 18 18 18 17 17 17 16 16 15 15 15 14 14 14 14 13
27 26 26 27 27 26 27 27 27 26 25 25 24 23 22 22 21 21 21 20 20 20 19 19 18 19 18 18 18 17 17 17 16 16 16 15 15 15 14 14 14 13 13 13
26 26 26 25 25 25 25 25 25 25 24 24 23 22 21 21 20 20 20 20 19 19 18 18 18 18 18 17 17 17 17 16 16 15 15 15 14 14 14 14 13 13 13 12
25 25 25 25 24 24 24 24 24 24 24 23 22 21 21 20 20 19 19 19 18 18 18 17 17 17 17 17 16 16 16 15 15 15 15 14 14 14 14 13 13 13 13 12
24 24 24 23 23 23 23 23 23 23 22 22 21 20 20 19 19 19 18 18 18 18 17 17 17 17 16 16 16 15 15 15 14 14 14 14 14 13 13 13 13 13 12 12
23 22 22 22 22 22 22 22 22 22 21 21 20 20 19 19 18 18 18 17 17 17 17 17 17 16 16 16 15 15 15 14 14 14 14 14 13 13 13 13 12 12 12 12
21 21 21 21 21 21 21 21 21 21 20 20 19 19 18 18 18 17 17 17 17 17 16 16 16 16 16 15 15 15 14 14 14 14 14 13 13 13 13 13 12 12 12 11
20 20 20 20 20 20 20 20 20 19 19 19 19 18 18 17 17 17 16 16 16 16 16 16 16 15 15 15 14 14 14 14 14 14 13 13 13 13 12 12 12 12 12 11
20 20 20 20 19 19 19 19 19 19 18 18 17 17 17 16 16 16 16 16 15 15 15 15 15 15 15 14 14 14 14 13 13 13 13 13 13 13 12 12 12 11 11 11
19 20 19 19 19 19 19 19 18 18 18 17 17 16 16 16 16 15 15 15 15 15 15 15 14 14 14 14 14 13 13 13 13 13 13 13 13 12 12 12 12 11 11 11
19 19 19 19 18 18 18 18 18 17 17 17 16 16 16 15 15 15 15 14 14 14 14 14 14 14 14 13 13 13 13 13 13 13 13 12 12 12 12 12 12 12 11 11
18 18 18 18 18 18 17 17 17 17 16 16 16 16 15 15 15 15 14 14 14 14 14 14 14 14 13 13 13 13 12 12 12 12 12 12 12 12 12 12 12 12 11 11
18 17 17 17 17 17 16 16 16 16 16 16 15 15 15 15 15 14 14 14 14 14 14 14 13 13 13 13 13 12 12 12 12 12 12 12 12 12 12 11 11 11 11 11
17 17 17 16 16 16 16 15 15 15 15 15 15 15 15 14 14 14 14 14 14 13 13 13 13 13 12 12 12 12 12 12 12 12 12 11 11 11 11 11 11 11 11 11
16 16 16 16 16 15 15 15 15 15 15 15 14 14 14 14 14 14 14 13 13 13 13 13 13 12 12 12 12 12 12 12 12 12 11 11 11 11 11 11 11 11 11 10
15 15 15 15 15 14 14 14 14 14 14 14 14 14 13 14 13 13 13 13 13 13 13 12 12 12 12 12 12 12 12 12 11 11 11 11 11 11 10 10 10 10 10 10
14 14 14 14 14 14 13 13 13 13 13 13 13 13 13 13 13 13 13 13 13 12 12 12 12 12 12 12 11 11 11 11 11 11 11 11 11 10 10 10 10 10 10 10
13 13 13 13 13 13 13 13 13 12 12 13 13 13 13 13 13 12 12 12 12 12 11 11 11 11 11 11 11 11 11 11 11 11 11 11 10 10 10 10 10 10 10 10
12 13 13 12 13 13 12 12 12 12 12 12 12 12 12 12 12 12 12 11 11 11 11 11 11 11 11 10 10 10 10 10 10 10 10 10 10 10 10 10 10 9 9 9
12 12 12 12 12 12 12 12 12 12 12 12 12 12 12 12 11 11 11 11 11 11 11 10 10 10 10 10 10 10 10 10 10 10 10 10 10 10 10 9 9 9 9 9
Wind_Speed
18 16 13 14 16 18 17 15 12 7 7 7 8 8 11 12 12 12 11 11 10 9 8 8 8 8 7 7 6 6 6 6 6 6 5 4 4 4 3 3 4 4 4 4
17 18 16 14 15 16 16 15 13 9 5 3 6 8 10 10 11 11 11 11 10 9 9 8 7 7 8 7 7 6 6 6 6 6 5 5 4 4 4 4 5 5 5 5
14 16 16 17 15 15 14 13 11 10 5 6 7 8 9 9 9 9 10 10 10 10 9 8 7 7 7 8 7 7 6 6 6 6 5 5 5 5 5 5 5 5 6 6
12 13 17 13 12 12 11 9 7 6 4 6 8 10 9 8 8 7 7 9 9 9 9 9 8 7 7 7 8 7 6 6 6 6 6 5 5 5 5 5 5 5 5 6
12 14 14 12 10 11 10 8 7 5 3 5 8 10 8 7 7 6 7 7 7 9 9 9 8 8 7 7 7 7 7 6 6 5 6 6 6 5 5 5 5 5 5 5
11 13 14 9 9 8 8 7 3 2 4 5 5 4 5 6 6 5 7 6 7 8 9 9 8 8 7 7 7 6 6 6 6 5 6 6 6 5 5 5 5 5 4 4
15 14 10 5 6 7 9 4 2 2 4 6 4 5 7 8 7 7 7 7 7 8 8 7 7 8 7 6 6 6 6 6 7 6 6 6 6 5 5 5 5 5 5 5
13 14 8 2 4 3 3 5 6 7 8 9 10 10 9 8 9 8 7 8 8 8 7 7 7 7 7 6 6 6 6 7 6 6 6 6 6 5 5 5 5 5 4 4
5 4 3 8 8 8 7 7 7 8 8 9 9 10 9 8 8 7 7 7 7 8 8 7 6 6 6 5 6 6 7 6 6 5 4 5 6 5 4 4 4 4 4 3
3 4 5 6 7 7 7 7 7 7 7 8 9 9 9 7 7 6 6 6 7 8 8 7 6 6 6 5 5 6 6 5 5 5 5 5 3 3 3 2 2 3 3 3
3 4 5 5 6 7 6 6 7 7 7 7 8 8 8 7 6 5 5 6 6 6 7 7 6 6 5 6 6 6 6 5 5 4 5 5 4 3 2 3 2 2 2 2
3 3 2 4 5 5 5 5 5 6 6 6 7 7 7 6 6 5 5 5 5 6 6 6 6 6 5 6 6 6 5 5 4 4 5 5 6 5 9 7 8 8 7 5
3 4 5 5 4 4 4 4 4 4 5 6 7 7 7 6 6 5 5 5 5 6 5 5 5 5 5 6 6 5 4 4 4 5 5 5 5 5 5 4 7 8 7 7
5 5 5 4 4 3 3 3 5 5 5 6 6 7 7 7 6 5 4 4 5 5 5 5 5 4 4 5 5 4 4 4 4 4 5 5 5 6 5 6 5 4 4 5
3 2 3 4 3 2 2 3 4 5 5 6 6 6 6 6 6 5 4 4 5 5 5 4 4 4 4 5 4 4 3 3 3 3 4 4 5 5 5 6 5 6 5 4
1 1 2 2 1 1 2 3 4 5 5 5 6 6 5 5 5 5 4 4 5 4 4 4 3 3 4 4 4 3 2 3 3 3 4 4 4 4 4 5 5 5 6 6
2 2 2 2 2 1 1 1 3 4 5 5 6 6 6 5 5 4 4 3 4 3 3 4 4 4 4 4 4 3 3 3 4 3 3 4 4 4 4 4 4 5 5 6
3 3 2 2 2 1 1 1 2 4 4 5 6 5 5 5 5 5 4 4 4 4 3 3 3 3 3 3 2 2 2 3 3 3 3 3 4 4 4 4 4 4 5 6
3 2 2 1 1 1 1 0 1 3 4 5 5 5 5 4 4 5 5 5 4 4 4 4 5 4 4 3 2 3 3 4 4 3 3 4 4 3 4 4 4 4 4 5
2 2 2 2 2 2 1 1 1 2 3 3 4 4 4 3 4 4 4 3 3 2 4 5 5 4 4 4 3 3 3 4 4 4 3 4 4 4 3 3 3 3 3 4
2 2 2 3 3 2 1 1 2 2 3 3 4 4 4 3 4 4 4 3 2 3 4 6 4 3 4 4 4 3 4 4 5 5 5 4 4 4 3 3 3 3 3 3
1 1 1 1 1 1 1 0 1 2 3 3 3 3 3 4 4 4 4 2 4 5 4 4 4 4 3 3 4 3 3 4 4 3 3 3 3 3 3 3 3 3 3 2
0 1 1 1 1 2 2 1 1 2 2 2 2 3 3 3 3 3 3 3 4 6 4 3 5 6 4 3 3 3 3 3 3 3 3 3 3 2 2 2 2 2 2 2
2 2 2 1 1 1 1 0 1 0 1 1 2 3 3 3 3 3 2 4 6 7 4 5 8 6 3 3 2 2 2 3 3 2 3 3 3 3 2 2 2 2 2 3
1 1 1 1 1 1 0 0 1 2 2 2 2 2 2 3 3 2 3 5 7 6 4 6 7 6 4 3 2 2 2 1 0 0 1 1 2 3 3 3 3 3 2 2
1 0 1 1 1 1 1 1 1 1 1 1 1 1 1 2 3 3 4 5 6 5 4 4 5 5 3 3 2 2 2 2 2 1 1 1 2 2 2 2 3 2 2 2
1 0 1 1 0 1 1 0 1 1 1 1 1 1 2 2 3 4 4 4 5 4 4 4 4 4 4 3 3 2 2 2 2 2 2 2 2 1 2 2 2 2 2 2
Wind_Direction
257 263 246 226 221 227 235 248 253 234 212 188 158 153 141 143 147 146 142 141 139 143 142 141 143 148 148 143 138 136 141 147 148 142 135 125 116 109 98 88 83 76 70 67
250 255 253 242 230 227 231 237 244 247 232 156 136 129 129 140 149 150 152 154 153 150 147 148 150 155 148 144 137 135 141 139 133 131 130 126 118 108 97 87 81 82 77 73
246 245 250 243 233 230 235 235 237 237 219 152 149 132 135 142 153 159 161 160 156 156 155 153 155 152 148 145 140 139 135 128 130 131 130 129 125 117 108 99 92 87 83 83
247 250 245 245 240 233 236 241 235 231 200 161 141 126 128 141 150 154 157 158 157 160 155 150 148 143 140 144 143 142 136 132 131 134 131 123 114 112 107 104 101 92 87 86
238 240 241 245 233 229 225 231 236 223 160 123 125 127 126 126 130 143 150 147 153 155 152 146 145 141 142 141 141 141 141 139 136 136 133 131 126 120 115 112 105 99 93 90
235 240 240 229 237 239 218 218 216 199 149 145 151 166 125 112 119 119 128 129 136 142 141 138 140 139 142 140 139 143 142 136 131 129 132 134 129 123 118 117 115 108 100 97
236 241 245 241 221 226 223 198 121 95 93 103 83 73 107 113 108 109 116 116 118 120 124 127 131 134 138 137 137 136 134 130 126 124 126 127 124 125 127 126 122 116 110 102
232 240 237 305 220 210 89 72 80 79 85 88 93 95 97 100 106 114 120 121 122 117 117 122 129 135 136 132 127 126 126 130 129 131 136 135 131 132 139 141 138 133 131 124
227 228 55 46 66 78 87 83 82 88 93 103 109 106 102 94 95 105 113 122 124 125 123 122 124 129 133 124 124 129 130 132 132 132 127 133 144 151 158 162 162 154 151 140
188 144 101 79 73 69 75 82 86 94 104 113 114 113 107 102 99 102 107 114 120 125 125 124 124 121 118 122 127 134 138 140 138 138 134 126 130 142 153 158 164 154 148 147
174 130 114 100 89 83 79 86 90 93 99 106 110 117 120 116 110 105 106 108 117 125 130 133 131 126 127 132 138 143 145 147 146 149 147 132 112 72 94 77 90 130 130 129
188 129 141 113 94 90 88 90 95 100 100 108 112 116 117 114 112 109 108 112 123 130 133 137 137 132 134 141 145 151 156 162 167 167 158 150 138 106 58 71 80 79 79 93
85 87 91 92 90 85 94 100 100 101 108 114 116 120 117 113 114 116 117 119 123 130 132 134 135 136 138 142 147 155 162 173 179 172 169 166 160 154 139 95 74 71 80 95
66 79 91 88 85 89 89 93 98 95 96 109 117 122 122 118 115 116 123 125 126 129 131 134 138 142 144 145 151 162 174 182 191 176 175 172 170 171 166 160 151 129 101 122
62 62 93 86 82 93 109 115 118 119 111 112 115 118 122 124 124 124 123 123 123 128 132 135 135 135 140 151 159 169 182 188 191 177 174 174 172 173 169 168 161 150 145 150
107 98 106 112 119 145 166 159 147 141 133 125 120 118 118 121 123 121 123 133 141 145 141 140 140 143 148 149 158 169 173 171 182 179 173 172 174 177 173 169 164 160 169 167
241 217 196 189 197 225 193 172 156 148 144 136 131 130 132 132 130 129 133 133 130 136 143 146 147 147 154 164 175 176 165 160 169 176 175 175 177 180 178 181 186 179 172 166
235 234 232 201 213 215 133 120 143 139 142 141 138 140 144 147 150 147 145 141 139 148 154 155 145 152 164 169 171 170 170 173 183 182 177 178 186 188 189 189 194 183 170 170
240 241 236 198 168 123 113 65 137 132 129 138 147 153 154 156 156 158 160 164 169 176 175 154 148 167 170 156 171 182 187 184 186 185 177 174 190 198 199 202 200 188 179 171
236 240 208 178 153 134 118 149 158 142 153 157 155 153 159 165 162 163 169 185 200 188 153 144 165 182 176 166 192 203 197 196 193 188 189 188 194 200 201 206 207 205 195 188
232 222 187 171 158 145 138 202 179 181 187 179 176 179 183 185 181 177 187 196 157 136 147 155 184 181 170 168 219 223 207 202 199 198 199 197 197 203 203 208 215 211 207 212
245 187 171 181 144 118 90 190 198 195 193 191 194 198 194 192 190 189 189 179 152 138 162 177 170 145 144 174 212 224 213 204 198 198 191 188 187 193 196 204 211 221 231 227
42 93 95 81 88 84 60 3 279 204 194 205 209 215 207 198 196 198 194 158 151 152 168 157 135 130 134 206 216 200 198 196 193 186 174 173 178 182 190 202 214 221 220 225
55 78 82 80 86 99 92 333 331 152 168 183 207 208 199 192 189 195 175 142 136 144 157 133 136 141 175 213 210 191 196 197 191 190 189 189 189 185 187 195 214 219 221 232
79 90 110 133 165 210 209 195 188 201 200 193 197 193 200 195 191 169 133 131 136 148 154 145 154 166 185 189 191 190 199 183 151 211 187 198 208 195 189 196 209 213 209 202
77 97 89 69 29 333 257 239 221 183 173 171 165 168 171 148 140 137 137 147 152 160 158 151 165 181 192 199 202 198 187 162 180 223 212 215 227 216 189 189 195 197 189 180
168 129 168 189 236 249 237 225 234 215 187 165 158 159 148 130 131 138 143 146 149 155 158 160 169 184 201 203 197 196 193 184 194 207 210 225 235 180 148 171 195 178 168 151
Height
1482 1476 1475 1478 1481 1482 1486 1488 1494 1495 1496 1494 1492 1495 1500 1505 1510 1515 1519 1523 1527 1531 1534 1536 1538 1540 1542 1544 1546 1547 1548 1548 1549 1549 1550 1550 1550 1550 1550 1550 1550 1550 1549 1549
1487 1478 1475 1477 1476 1478 1480 1482 1486 1489 1493 1489 1492 1495 1501 1505 1510 1514 1518 1522 1527 1530 1532 1535 1537 1539 1541 1543 1544 1545 1546 1547 1548 1549 1549 1550 1550 1550 1550 1550 1550 1550 1550 1549
1494 1482 1481 1487 1477 1477 1479 1477 1482 1490 1490 1490 1493 1497 1502 1506 1510 1514 1518 1521 1525 1528 1531 1534 1536 1538 1540 1541 1543 1544 1545 1546 1547 1548 1548 1549 1550 1549 1550 1550 1550 1550 1549 1549
1494 1493 1506 1482 1467 1469 1475 1477 1477 1481 1483 1488 1493 1498 1502 1506 1510 1513 1517 1520 1524 1527 1530 1533 1535 1537 1539 1541 1542 1543 1544 1546 1547 1547 1548 1549 1549 1549 1549 1549 1550 1550 1550 1550
1495 1499 1493 1477 1469 1470 1476 1483 1478 1481 1484 1489 1493 1498 1504 1507 1510 1513 1516 1519 1522 1526 1528 1531 1533 1535 1537 1539 1541 1542 1543 1545 1546 1547 1548 1548 1549 1549 1549 1549 1550 1550 1550 1550
1494 1501 1500 1482 1470 1469 1474 1486 1480 1482 1486 1489 1492 1498 1505 1508 1510 1514 1516 1518 1522 1524 1527 1529 1531 1534 1536 1538 1539 1541 1542 1543 1545 1546 1546 1547 1548 1548 1549 1549 1549 1549 1549 1549
1493 1495 1485 1471 1469 1472 1488 1490 1483 1485 1488 1492 1496 1501 1506 1508 1510 1514 1515 1518 1521 1523 1525 1528 1530 1532 1534 1536 1538 1540 1541 1542 1543 1544 1546 1547 1547 1547 1548 1549 1549 1549 1549 1549
1490 1494 1492 1475 1472 1478 1485 1484 1485 1488 1491 1495 1499 1503 1506 1508 1510 1514 1517 1519 1520 1522 1524 1527 1529 1532 1533 1535 1537 1538 1540 1541 1542 1543 1544 1545 1546 1547 1547 1548 1548 1549 1549 1549
1483 1487 1483 1480 1481 1483 1485 1487 1489 1492 1495 1498 1501 1505 1508 1510 1512 1514 1517 1519 1520 1522 1524 1527 1529 1531 1532 1534 1535 1537 1538 1540 1541 1542 1543 1544 1545 1546 1547 1547 1548 1548 1548 1548
1479 1481 1483 1484 1486 1487 1489 1491 1493 1495 1498 1500 1503 1506 1509 1511 1514 1515 1517 1519 1521 1522 1524 1526 1528 1530 1532 1533 1534 1536 1537 1538 1539 1541 1542 1543 1544 1545 1546 1546 1547 1547 1547 1548
1481 1482 1485 1488 1489 1491 1492 1494 1496 1498 1500 1502 1504 1507 1510 1512 1514 1516 1518 1520 1521 1522 1524 1526 1528 1529 1530 1531 1533 1534 1535 1537 1538 1539 1541 1541 1542 1543 1544 1545 1545 1546 1546 1546
1482 1483 1487 1490 1491 1493 1495 1496 1498 1500 1502 1504 1506 1508 1510 1513 1514 1516 1518 1519 1521 1522 1524 1525 1526 1527 1528 1530 1531 1533 1534 1535 1537 1538 1539 1540 1540 1541 1542 1543 1544 1544 1545 1545
1483 1485 1487 1490 1492 1494 1496 1498 1500 1502 1504 1505 1507 1509 1511 1512 1514 1516 1517 1519 1520 1521 1523 1524 1525 1526 1528 1529 1530 1531 1532 1534 1535 1536 1537 1538 1539 1540 1540 1541 1542 1543 1543 1544
1486 1488 1490 1492 1494 1496 1498 1499 1501 1502 1504 1506 1507 1509 1511 1512 1514 1516 1517 1518 1520 1521 1522 1523 1524 1525 1526 1527 1528 1530 1531 1532 1534 1535 1536 1537 1538 1539 1539 1540 1540 1541 1542 1543
1489 1490 1491 1493 1495 1497 1499 1500 1502 1503 1505 1506 1508 1509 1511 1512 1514 1515 1517 1518 1519 1520 1521 1522 1523 1524 1525 1525 1527 1528 1530 1531 1532 1533 1534 1535 1536 1537 1538 1539 1539 1540 1541 1542
1490 1492 1493 1495 1497 1498 1500 1501 1502 1504 1505 1507 1508 1509 1511 1512 1514 1515 1516 1517 1518 1519 1520 1521 1522 1523 1524 1524 1525 1526 1527 1529 1530 1531 1532 1533 1534 1536 1537 1538 1538 1539 1540 1540
1492 1493 1495 1496 1497 1498 1499 1501 1502 1503 1505 1506 1508 1509 1510 1512 1513 1514 1515 1517 1517 1518 1519 1520 1521 1521 1522 1523 1524 1525 1526 1527 1528 1529 1530 1531 1532 1534 1535 1536 1537 1538 1539 1539
1493 1494 1495 1496 1498 1499 1500 1501 1502 1503 1505 1506 1507 1509 1510 1511 1512 1513 1514 1515 1516 1517 1518 1519 1519 1520 1521 1522 1522 1523 1524 1525 1526 1527 1528 1529 1530 1532 1533 1534 1536 1536 1537 1538
1492 1494 1495 1496 1498 1499 1501 1502 1502 1503 1504 1505 1507 1508 1509 1510 1511 1512 1513 1514 1515 1515 1516 1517 1518 1519 1519 1520 1521 1522 1523 1524 1525 1526 1527 1528 1529 1530 1531 1532 1533 1534 1535 1535
1492 1494 1495 1496 1498 1499 1500 1501 1501 1503 1504 1505 1506 1507 1508 1509 1510 1511 1512 1513 1514 1514 1514 1515 1516 1517 1518 1518 1519 1521 1522 1523 1523 1524 1525 1526 1527 1528 1529 1530 1531 1532 1533 1533
1491 1493 1494 1495 1497 1498 1499 1500 1501 1502 1502 1503 1504 1505 1506 1507 1509 1509 1510 1511 1512 1512 1513 1514 1515 1516 1516 1517 1518 1519 1520 1521 1522 1522 1523 1524 1525 1526 1527 1528 1529 1530 1531 1531
1491 1492 1493 1495 1495 1497 1498 1499 1499 1500 1501 1502 1503 1504 1505 1506 1507 1508 1509 1509 1510 1510 1511 1512 1513 1514 1515 1515 1516 1517 1518 1519 1520 1521 1522 1523 1523 1524 1525 1526 1527 1527 1528 1529
1491 1492 1493 1494 1495 1496 1496 1497 1498 1498 1499 1500 1501 1502 1503 1504 1505 1506 1506 1507 1507 1508 1509 1510 1511 1512 1513 1514 1515 1516 1517 1518 1519 1519 1520 1521 1522 1522 1523 1524 1524 1525 1525 1526
1491 1491 1492 1493 1494 1495 1495 1496 1496 1497 1497 1499 1499 1500 1501 1502 1503 1504 1504 1505 1505 1506 1508 1509 1510 1511 1512 1512 1513 1514 1516 1517 1517 1518 1519 1519 1520 1520 1521 1522 1522 1523 1523 1524
1491 1491 1492 1492 1493 1493 1494 1494 1494 1495 1495 1496 1498 1498 1500 1501 1502 1502 1503 1503 1503 1505 1506 1507 1508 1509 1510 1511 1513 1514 1515 1516 1516 1517 1517 1518 1519 1519 1519 1520 1521 1521 1521 1521
1490 1490 1491 1491 1492 1492 1493 1493 1493 1494 1495 1495 1496 1497 1498 1499 1499 1500 1501 1501 1502 1503 1504 1506 1507 1508 1509 1510 1512 1513 1514 1514 1515 1516 1517 1517 1518 1518 1518 1518 1519 1519 1519 1519
1489 1489 1490 1490 1490 1491 1492 1492 1492 1493 1493 1494 1495 1495 1496 1497 1498 1498 1499 1500 1501 1503 1504 1505 1506 1507 1509 1510 1512 1513 1513 1514 1515 1515 1516 1516 1517 1517 1517 1517 1518 1518 1518 1518